Weather observations for the past three days for
Wildwood, Cape May County Airport
Imperial (Metric)
Date Time (edt) Wind (mph) Vis. (mi.) Weather Sky Cond. Temperature (ºF) Relative Humidity Wind Chill (°F) Heat Index (°F) Pressure Precipitation (in)
Air Dwpt 6 hour altimeter (in) sea level (mb) 1 hr 3 hr 6 hr
Max. Min.
13 15:56 S 21 G 25 10.00 A Few Clouds and Breezy FEW050 81 60.1 49% 82 30.02 1016.6
13 14:56 S 20 G 24 10.00 Fair CLR 81 60.1 49% 82 30.03 1017.0
13 13:56 S 17 10.00 Fair CLR 81 61 82 73 51% 82 30.04 1017.2
13 12:56 S 15 10.00 Fair CLR 81 66.9 62% 83 30.05 1017.7
13 11:56 S 8 10.00 Fair CLR 82 66.9 60% 85 30.05 1017.8
13 10:56 S 10 10.00 Fair CLR 81 66 61% 83 30.06 1018.1
13 09:56 S 8 10.00 Fair CLR 79 66 65% 81 30.07 1018.2
13 08:56 S 7 10.00 Fair CLR 77 64 64% 79 30.07 1018.3
13 07:56 S 8 10.00 Fair CLR 73 63 73 61 71% 30.07 1018.3
13 06:56 SE 3 10.00 Fair CLR 66.9 62.1 84% 30.06 1018.1
13 05:56 Calm 10.00 Fair CLR 63 57.9 84% 30.05 1017.6
13 04:56 SE 3 10.00 Fair CLR 61 57.9 90% 30.03 1017.2
13 03:56 Calm 10.00 Fair CLR 64 59 84% 30.02 1016.7
13 02:56 SW 3 10.00 Fair CLR 64.9 61 87% 30.02 1016.8
13 01:56 SW 5 10.00 Fair CLR 64.9 61 70 63 87% 30.04 1017.2
13 00:56 S 3 10.00 Fair CLR 64 63 96% 30.04 1017.4
12 23:56 Calm 10.00 Fair CLR 64.9 64 97% 30.04 1017.4
12 22:56 S 6 10.00 Fair CLR 66 64 93% 30.04 1017.5
12 21:56 S 7 10.00 Fair CLR 68 63 84% 30.04 1017.4
12 20:56 S 9 10.00 Fair CLR 68 61 78% 30.03 1016.9
12 19:56 S 9 10.00 Fair CLR 70 61 79 70 73% 30.03 1017.0
12 18:56 S 9 10.00 Fair CLR 73 59 62% 30.03 1016.9
12 17:56 S 14 10.00 Fair CLR 75 60.1 60% 77 30.02 1016.7
12 16:56 SW 10 10.00 Fair CLR 79 55.9 45% 80 30.02 1016.7
12 15:56 NW 8 10.00 Fair CLR 78.1 55 45% 79 30.03 1016.9
12 14:56 NW 8 10.00 Fair CLR 77 55 47% 78 30.03 1017.1
12 13:56 NW 9 10.00 Fair CLR 75.9 51.1 78.1 69.1 42% 78 30.05 1017.7
12 12:56 NW 10 8.00 Fair CLR 75 55 50% 78 30.05 1017.8
12 11:56 Vrbl 7 10.00 Fair CLR 75 57 54% 78 30.07 1018.2
12 09:56 W 8 10.00 Fair CLR 71.1 60.1 68% 30.07 1018.3
12 08:56 W 6 10.00 Fair CLR 71.1 57.9 63% 30.07 1018.2
12 07:56 W 5 10.00 Fair CLR 69.1 61 69.1 57 76% 30.06 1018.1
12 06:56 Calm 10.00 Fair CLR 62.1 61 96% 30.06 1017.9
12 05:56 Calm 9.00 A Few Clouds FEW022 57.9 57.9 100% 30.04 1017.6
12 04:56 Calm 10.00 Fair CLR 59 57.9 96% 30.03 1017.2
12 03:56 Calm 10.00 Fair CLR 59 57.9 96% 30.02 1016.8
12 02:56 Calm 10.00 Fair CLR 57 55.9 96% 30.01 1016.4
12 01:56 Calm 10.00 Fair CLR 57 55.9 66.9 57 96% 30.01 1016.4
12 00:56 Calm 10.00 Fair CLR 57.9 57 97% 30.01 1016.5
11 23:56 Calm 10.00 A Few Clouds FEW075 59 57.9 96% 30.01 1016.5
11 22:56 Calm 10.00 Fair CLR 60.1 59 96% 30.01 1016.5
11 21:56 Calm 10.00 A Few Clouds FEW065 61 60.1 97% 30 0.0
11 20:56 Calm 10.00 Fair CLR 64 60.1 87% 29.97 0.0
11 19:56 E 5 10.00 Fair CLR 66.9 61 73 66.9 81% 29.96 0.0
11 18:56 E 5 10.00 Mostly Cloudy BKN095 68 60.1 76% 29.95 0.0
11 17:56 E 6 10.00 Overcast OVC095 68 61 78% 29.95 0.0
11 16:56 E 7 10.00 Overcast OVC080 66.9 60.1 79% 29.95 0.0
11 15:56 E 9 10.00 Overcast OVC090 69.1 61 76% 29.94 0.0
11 14:56 NE 9 10.00 Mostly Cloudy BKN095 73 61 66% 29.95 0.0
11 13:56 NE 10 10.00 Overcast FEW025 BKN040 OVC090 70 60.1 71% 29.94 0.0
11 12:56 NE 8 G 18 10.00 Overcast OVC031 69.1 60.1 73% 29.93 0.0
11 11:56 NE 9 10.00 Overcast BKN028 OVC100 71.1 60.1 68% 29.93 0.0
11 10:56 Vrbl 7 0.00 NULL NULL 69.1 60.1 73% 29.93 0.0
11 09:56 NE 7 10.00 Overcast OVC100 68 59 73% 29.93 1013.5
11 08:56 N 5 10.00 Overcast OVC100 66 60.1 81% 29.92 1013.3
11 07:56 N 6 10.00 Mostly Cloudy BKN100 66 59 66 59 78% 29.91 1013.0 0.09
11 06:56 N 3 10.00 Fair CLR 62.1 57.9 86% 29.89 1012.1
11 05:56 N 5 10.00 A Few Clouds FEW120 60.1 57.9 93% 29.86 1011.1
11 04:56 N 3 10.00 Fair CLR 61 60.1 97% 29.84 1010.7 0.01 0.09
11 03:56 NE 3 10.00 Light Rain OVC100 62.1 61 96% 29.85 1010.9 0.07
11 02:56 NW 6 10.00 Rain BKN065 OVC080 62.1 57.9 86% 29.87 1011.5 0.01
11 01:56 N 5 10.00 Overcast FEW020 OVC090 64.9 57 73.9 64.9 76% 29.84 1010.4
11 00:56 Calm 10.00 Overcast OVC080 68 57.9 70% 29.83 1010.1
10 23:56 Calm 10.00 Overcast OVC090 68 57.9 70% 29.82 1009.9
10 22:56 Calm 10.00 Overcast OVC085 68 57.9 70% 29.8 1009.1
10 21:56 Calm 10.00 Overcast OVC080 68 57 68% 29.78 1008.4
10 20:56 Calm 10.00 Fair CLR 70 55 59% 29.75 1007.5
10 19:56 NW 3 10.00 Fair CLR 73.9 54 81 73.9 50% 29.73 1006.8
10 18:56 NW 6 10.00 Fair CLR 77 54 45% 78 29.72 1006.5
10 17:56 NW 8 10.00 Mostly Cloudy BKN100 78.1 55 45% 79 29.71 1006.1
10 16:56 NW 8 10.00 Fair CLR 79 55 44% 80 29.72 1006.4
Date Time (edt) Wind (mph) Vis. (mi.) Weather Sky Cond. Air Dwpt Max. Min. Relative Humidity Wind Chill (°F) Heat Index (°F) altimeter (in) sea level (mb) 1 hr 3 hr 6 hr
6 hour
Temperature (ºF) Pressure Precipitation (in)